Showing default

ROBUSTA-3A, 60243

Orbit data source: Space-Track

ROBUSTA-3A, 60243 is a payload satellite owned by Montpellier (FR) in LEO that was launched on Tue, 09 Jul 2024 UTC via an ARIANE 62 launch vehicle from the French Guiana (FRGUI). Payload-class satellites include a variety of spacecraft equipped with specific instruments for various scientific and technological missions. These include communications satellites like Starlink; space stations such as the ISS; scientific satellites like the Hubble; Earth observation satellites from companies like Planet Labs, Umbra, and HawkEye 360; GPS; miniature CubeSats for education and research; and military/defense satellites.

Loading next visibility...
Identifier
60243, 2024-128J
Orbit
LEO
Country
Flag of FRFR
Related business
Manufacturer
Montpellier
Mission
Operational Amateur Technology
Bus & Motor
CUBESAT 3U, Unknown motor
Mass
5 kg wet, 5 kg dry
Launch date (UTC)
2024-07-09 (1 year ago)
Launch vehicle
ARIANE 62
Launch site
French Guiana (FRGUI)
Object type
Payload
Rocket body
Debris
Shape & HBR
Box + 4 Pan, 1.0 m
Radar Cross Section
0.072 m², Small (<0.1 m²)

Expand to show TLE details & history
Last TLE update: 10 hours ago

TLE from 10 hours ago
0 ROBUSTA-3A
1 60243U 24128J   25308.46711921  .00010354  00000-0  67209-3 0  9991
2 60243  61.9869 280.4970 0056726  82.6640 278.0896 15.07238664 72492
Epoch: 2025-11-04T11:12Z
TLE epoch observation values (Epoch: 2025-11-04T11:12:39.099Z)
Latitude
0.00002°
Longitude
68.38037°
Altitude
541.108 km
Speed
7.595 km/s
True Right ascension
18h 41m 59s
True Declination
0° 00' 00"
Sunlit
Object was in daylight at epoch
Visualization orbit readout
Latitude
Unknown
Longitude
Unknown
Altitude
Unknown
Speed
Unknown
Apparent Right ascension
Unknown
Apparent Declination
Unknown
Sunlit
N/A
Visualization observer readout
Local Sidereal Time
17:20:21
Azimuth
Unknown
Elevation
Unknown
Doppler factor
Unknown
Orbital elements
Apogee altitude
582.835 km
Perigee altitude
504.307 km
Semi-major axis
6,921.708 km
Eccentricity
0.00567
Inclination
61.9869°
RAAN
280.497°
Arg. of periapsis
82.664°
True anomaly
277.44541°
Mean anomaly
278.0896°
Eccentric anomaly
277.76757°
Mean motion
3.76898 °/min
Orbital period
95.52 mins
BSTAR
0.00067209
Loading maneuver chart data...
Computing Atmospheric mass density...
Loading historical data...
Loading historical data...
Loading historical data...
Loading historical data...
Loading historical data...
Loading historical data...
Loading historical data...

Documentation

Showing up to 5 results
|